DW7013 Weather Reports


Display with metric or nautical units.
time (UTC)temp
F
wind
direction
speed
MPH
gust
MPH
rain 1hr
in
rain 24hr
in
rain mn
in
humidity
%
barometer
mb
20201026215209 40 130 0.0 0.0 0.00 0.90 0.90 97 1009.7
20201026214714 40 126 0.0 0.0 0.00 0.90 0.90 97 1009.7
20201026214212 40 141 0.0 2.0 0.00 0.90 0.90 97 1009.7
20201026213720 40 124 0.0 2.0 0.00 0.90 0.90 97 1009.5
20201026213222 40 205 0.0 0.0 0.00 0.90 0.90 97 1009.5
20201026212716 40 144 0.0 0.0 0.00 0.90 0.90 97 1009.4
20201026212225 40 154 0.0 0.0 0.00 0.90 0.90 97 1009.5
20201026211711 40 171 0.0 0.0 0.00 0.90 0.90 97 1009.7
20201026211209 40 71 0.0 0.0 0.00 0.90 0.90 97 1009.5
20201026210725 40 88 0.0 0.0 0.00 0.90 0.90 97 1009.5
20201026210213 40 129 0.0 0.0 0.00 0.90 0.90 97 1009.5
20201026205712 40 126 0.0 0.0 0.00 0.90 0.90 97 1009.5
20201026205215 40 125 0.0 0.0 0.00 0.90 0.90 97 1009.5
20201026204720 40 122 0.0 0.0 0.00 0.90 0.90 97 1009.4
20201026204220 40 120 0.0 0.0 0.00 0.90 0.90 97 1009.4
20201026203711 40 163 0.0 0.0 0.00 0.90 0.90 97 1009.4
20201026203215 40 76 0.0 0.0 0.00 0.90 0.90 97 1009.4
20201026202722 40 148 0.0 0.0 0.00 0.90 0.90 97 1009.5
20201026202225 40 52 0.0 0.0 0.00 0.90 0.90 97 1009.5
20201026201716 40 129 0.0 0.0 0.00 0.90 0.90 97 1009.5
20201026201216 40 129 0.0 0.0 0.00 0.90 0.90 97 1009.4
20201026200719 40 129 0.0 0.0 0.00 0.90 0.90 97 1009.5
20201026200220 40 144 0.0 0.0 0.00 0.90 0.90 97 1009.3
20201026195717 40 132 0.0 0.0 0.00 0.90 0.90 97 1009.3
20201026195211 40 136 0.0 0.0 0.00 0.90 0.90 97 1009.3
20201026194708 40 136 0.0 0.0 0.00 0.90 0.90 97 1009.3
20201026194223 40 136 0.0 0.0 0.00 0.90 0.90 97 1009.2
20201026193714 40 136 0.0 0.0 0.00 0.90 0.90 97 1009.3
20201026193224 40 136 0.0 1.0 0.00 0.90 0.90 97 1009.4
20201026192714 40 136 0.0 1.0 0.00 0.90 0.90 97 1009.3
20201026192214 40 170 0.0 1.0 0.00 0.90 0.90 97 1009.2
20201026191713 40 170 0.0 1.0 0.00 0.90 0.90 97 1009.3
20201026191208 40 144 0.0 0.0 0.00 0.90 0.90 97 1009.1
20201026190719 40 140 0.0 0.0 0.00 0.90 0.90 97 1009.0
20201026190210 40 150 0.0 0.0 0.00 0.90 0.90 97 1008.9
20201026185712 40 107 0.0 0.0 0.00 0.90 0.90 97 1008.9
20201026185216 40 132 0.0 0.0 0.00 0.90 0.90 97 1008.8
20201026184714 40 133 0.0 0.0 0.00 0.90 0.90 97 1008.9
20201026184214 40 145 0.0 1.0 0.00 0.90 0.90 97 1008.9
20201026183717 40 136 0.0 1.0 0.00 0.90 0.90 97 1009.1
20201026183214 40 76 0.0 0.0 0.00 0.90 0.90 97 1009.1
20201026182712 40 116 0.0 0.0 0.00 0.90 0.90 97 1008.9
20201026182224 40 142 0.0 0.0 0.00 0.90 0.90 97 1008.9
20201026181723 40 126 0.0 0.0 0.00 0.90 0.90 97 1008.9
20201026181213 40 124 0.0 0.0 0.00 0.90 0.90 97 1008.7
20201026180711 40 116 0.0 0.0 0.00 0.90 0.90 97 1009.0
20201026180212 40 121 0.0 0.0 0.00 0.90 0.90 97 1009.0
20201026175722 40 34 0.0 1.0 0.00 0.90 0.90 97 1008.8
20201026175217 40 131 0.0 1.0 0.00 0.90 0.90 97 1008.8
20201026174713 40 117 0.0 1.0 0.00 0.90 0.90 97 1008.7
20201026174219 40 88 0.0 2.0 0.00 0.90 0.90 97 1008.9
20201026173710 40 113 0.0 2.0 0.00 0.90 0.90 97 1009.0
20201026173224 40 105 0.0 2.0 0.00 0.90 0.90 97 1009.0
20201026172710 40 97 0.0 2.0 0.00 0.90 0.90 97 1009.0
20201026172218 40 121 0.0 0.0 0.00 0.90 0.90 97 1008.7
20201026171716 40 122 0.0 0.0 0.00 0.90 0.90 97 1008.7
20201026171216 40 101 0.0 0.0 0.00 0.90 0.90 97 1008.7
20201026170719 40 169 0.0 0.0 0.00 0.90 0.90 97 1008.6
20201026170207 40 135 0.0 0.0 0.00 0.90 0.90 97 1008.5
20201026165708 40 135 0.0 0.0 0.00 0.90 0.90 97 1008.4
20201026165220 40 136 0.0 0.0 0.00 0.90 0.90 97 1008.1
20201026164716 40 136 0.0 0.0 0.00 0.90 0.90 97 1008.0
20201026164222 40 136 0.0 2.0 0.00 0.90 0.90 97 1007.6
20201026163719 40 136 0.0 2.0 0.00 0.90 0.90 97 1007.5
20201026163224 40 139 0.0 2.0 0.00 0.90 0.90 97 1007.6
20201026162721 40 136 0.0 2.0 0.00 0.90 0.90 97 1007.6
20201026162221 40 106 0.0 0.0 0.00 0.90 0.90 97 1007.7
20201026161721 40 143 0.0 0.0 0.00 0.90 0.90 96 1008.0
20201026161216 40 144 0.0 0.0 0.00 0.90 0.90 96 1008.4
20201026160718 40 128 0.0 0.0 0.00 0.90 0.90 96 1008.0
20201026160213 40 107 0.0 0.0 0.00 0.90 0.90 96 1007.7
20201026155718 40 117 0.0 0.0 0.00 0.90 0.90 96 1007.8
20201026155217 40 124 0.0 0.0 0.00 0.90 0.90 96 1007.7
20201026154710 40 141 0.0 0.0 0.00 0.90 0.90 96 1007.7
20201026154214 40 178 0.0 0.0 0.00 0.90 0.90 96 1007.9
20201026153718 40 148 0.0 0.0 0.00 0.90 0.90 96 1007.8
20201026153222 40 146 0.0 0.0 0.00 0.90 0.90 96 1007.8
20201026152709 40 159 0.0 0.0 0.00 0.90 0.90 96 1007.9
20201026152220 40 129 0.0 1.0 0.01 0.90 0.90 96 1007.8
20201026151713 40 139 0.0 1.0 0.01 0.90 0.90 96 1007.8
20201026151218 40 169 0.0 1.0 0.01 0.90 0.90 96 1007.8
20201026150709 40 144 0.0 1.0 0.01 0.90 0.90 96 1007.7
20201026150216 40 152 0.0 1.0 0.01 0.90 0.90 96 1007.7
20201026145722 40 115 0.0 1.0 0.01 0.90 0.90 96 1008.0
20201026145206 40 119 0.0 1.0 0.01 0.90 0.90 96 1008.1
20201026144708 40 179 0.0 1.0 0.01 0.90 0.90 96 1007.9
20201026144213 40 146 0.0 0.0 0.01 0.90 0.90 96 1007.9
20201026143715 40 154 0.0 0.0 0.01 0.90 0.90 96 1007.9
20201026143212 40 72 0.0 0.0 0.01 0.90 0.90 96 1007.9
20201026142718 40 140 0.0 0.0 0.01 0.90 0.90 96 1007.8
20201026142217 40 126 0.0 0.0 0.01 0.90 0.90 96 1007.8
20201026141708 40 126 0.0 0.0 0.01 0.89 0.89 96 1007.6
20201026141217 40 162 0.0 0.0 0.01 0.89 0.89 96 1007.7
20201026140718 40 136 0.0 0.0 0.01 0.89 0.89 96 1007.6
20201026140219 40 136 0.0 0.0 0.01 0.89 0.89 96 1007.8
20201026135711 40 130 0.0 0.0 0.02 0.89 0.89 96 1007.9
20201026135223 40 142 0.0 0.0 0.02 0.89 0.89 96 1007.9
20201026134721 40 141 0.0 0.0 0.02 0.89 0.89 96 1007.9
20201026134222 40 117 0.0 2.0 0.03 0.89 0.89 96 1007.8
20201026133723 40 144 0.0 2.0 0.03 0.89 0.89 96 1007.8
20201026133213 40 133 0.0 3.0 0.04 0.89 0.89 96 1007.6
20201026132724 40 131 0.0 3.0 0.04 0.89 0.89 96 1007.5
20201026132211 40 135 0.0 3.0 0.05 0.89 0.89 96 1007.8
20201026131714 40 138 0.0 3.0 0.05 0.88 0.88 96 1007.8
20201026131215 40 121 0.0 1.0 0.06 0.88 0.88 96 1007.8
20201026130717 40 144 0.0 1.0 0.06 0.88 0.88 96 1007.8
20201026130214 40 132 0.0 1.0 0.06 0.88 0.88 96 1007.7
20201026125720 40 147 0.0 1.0 0.06 0.87 0.87 96 1007.6
20201026125217 40 146 0.0 2.0 0.06 0.87 0.87 96 1007.6
20201026124721 40 122 0.0 2.0 0.06 0.87 0.87 96 1007.7
20201026124210 40 126 0.0 2.0 0.06 0.87 0.87 96 1007.8
20201026123729 40 134 0.0 2.0 0.06 0.86 0.86 96 1007.7
20201026123218 40 126 0.0 0.0 0.06 0.86 0.86 96 1007.9
20201026122712 40 148 0.0 0.0 0.06 0.84 0.84 96 1007.9
20201026122221 40 108 0.0 0.0 0.06 0.84 0.84 96 1007.7
20201026121713 40 125 0.0 0.0 0.06 0.83 0.83 95 1007.7
20201026121220 40 137 0.0 1.0 0.07 0.83 0.83 96 1007.8
20201026120742 40 135 0.0 1.0 0.07 0.83 0.83 95 1007.7
20201026120212 40 138 0.0 1.0 0.07 0.83 0.83 96 1007.7
20201026115717 40 119 0.0 0.0 0.07 0.82 0.82 96 1007.7
20201026115210 40 144 0.0 0.0 0.08 0.82 0.82 95 1007.8
20201026114711 40 152 0.0 0.0 0.08 0.81 0.80 95 1007.7
20201026114213 40 117 0.0 0.0 0.08 0.80 0.80 95 1007.7
20201026113711 40 155 0.0 0.0 0.08 0.80 0.80 95 1007.8
20201026113221 40 124 0.0 0.0 0.07 0.80 0.80 95 1007.9
20201026112720 40 134 0.0 0.0 0.07 0.79 0.78 95 1007.8
20201026112224 40 129 0.0 0.0 0.06 0.76 0.78 95 1007.8
20201026111721 40 144 0.0 0.0 0.06 0.76 0.76 95 1007.7
20201026111216 40 137 0.0 0.0 0.06 0.76 0.76 95 1007.6
20201026110715 40 121 0.0 0.0 0.06 0.76 0.76 95 1007.7
20201026110219 40 128 0.0 0.0 0.06 0.76 0.76 95 1007.8
20201026105713 40 138 0.0 0.0 0.05 0.74 0.74 95 1007.8
20201026105224 40 133 0.0 2.0 0.05 0.74 0.74 95 1007.8
20201026104712 40 140 0.0 2.0 0.05 0.73 0.73 95 1007.8
20201026104218 40 112 0.0 4.0 0.06 0.73 0.73 95 1007.7
20201026103721 40 160 0.0 4.0 0.06 0.72 0.72 95 1007.6
20201026103209 40 139 0.0 3.0 0.06 0.72 0.72 95 1007.6
20201026102715 40 117 0.0 3.0 0.06 0.71 0.71 95 1007.6
20201026102209 40 137 0.0 2.0 0.08 0.71 0.71 95 1007.5
20201026101725 40 82 0.0 2.0 0.08 0.71 0.71 95 1007.4
20201026101218 40 113 0.0 0.0 0.08 0.71 0.71 95 1007.1
20201026100710 40 155 0.0 0.0 0.08 0.70 0.70 95 1007.1
20201026100208 40 119 0.0 0.0 0.08 0.70 0.70 95 1007.2
20201026095719 40 73 0.0 4.0 0.09 0.69 0.69 95 1007.3
20201026095226 40 101 0.0 4.0 0.09 0.69 0.69 95 1007.6
20201026094715 40 136 0.0 4.0 0.09 0.68 0.68 95 1007.6
20201026094213 40 132 0.0 1.0 0.06 0.66 0.68 95 1007.5
20201026093713 41 130 0.0 1.0 0.06 0.66 0.66 95 1007.1
20201026093215 41 137 0.0 5.0 0.06 0.66 0.66 95 1007.3
20201026092711 41 148 0.0 5.0 0.06 0.65 0.65 94 1007.3
20201026092206 41 126 0.0 5.0 0.05 0.65 0.65 94 1007.1
20201026091720 41 96 0.0 4.0 0.05 0.64 0.64 94 1007.1
20201026091216 41 135 0.0 4.0 0.05 0.62 0.62 94 1007.1
20201026090717 41 95 0.0 0.0 0.04 0.61 0.61 94 1007.2
20201026090214 41 87 0.0 0.0 0.04 0.61 0.61 94 1007.3
20201026085715 41 117 0.0 0.0 0.04 0.61 0.61 94 1007.5
20201026085210 41 159 0.0 0.0 0.02 0.60 0.61 94 1007.4
20201026084710 41 157 0.0 0.0 0.02 0.60 0.60 94 1007.4
20201026084221 41 126 0.0 0.0 0.02 0.60 0.60 94 1007.2
20201026083707 41 126 0.0 0.0 0.02 0.59 0.60 94 1007.2
20201026083228 41 126 0.0 0.0 0.02 0.59 0.59 94 1007.1
20201026082710 41 126 0.0 0.0 0.04 0.58 0.59 93 1007.2
20201026082242 41 126 0.0 0.0 0.04 0.58 0.58 93 1007.2
20201026081735 41 69 0.0 0.0 0.05 0.58 0.58 93 1007.2
20201026081216 41 69 0.0 0.0 0.05 0.58 0.58 93 1007.1
20201026080730 41 69 0.0 0.0 0.05 0.58 0.58 93 1007.2
20201026080217 41 69 0.0 0.0 0.06 0.57 0.58 93 1007.3
20201026075717 40 69 0.0 0.0 0.06 0.57 0.57 92 1007.1
20201026075215 40 69 0.0 0.0 0.08 0.57 0.57 92 1007.1
20201026074710 40 69 0.0 0.0 0.08 0.57 0.57 92 1006.9
20201026074210 40 69 0.0 0.0 0.08 0.57 0.57 92 1007.2
20201026073714 40 69 0.0 0.0 0.09 0.56 0.57 92 1007.2
20201026073219 41 69 0.0 0.0 0.09 0.56 0.56 92 1007.2
20201026072715 41 69 0.0 0.0 0.09 0.56 0.56 92 1007.1
20201026072218 41 69 0.0 0.0 0.09 0.54 0.56 92 1006.8
20201026071707 40 69 0.0 0.0 0.09 0.54 0.54 91 1006.7
20201026071209 41 69 0.0 0.0 0.09 0.54 0.54 91 1006.8
20201026070710 41 9 0.0 0.0 0.09 0.52 0.52 91 1006.8
20201026070207 41 355 0.0 0.0 0.09 0.52 0.52 91 1006.8
20201026065717 41 340 0.0 0.0 0.10 0.50 0.52 91 1006.9
20201026065213 41 340 0.0 0.0 0.10 0.50 0.50 91 1006.7
20201026064712 41 78 0.0 2.0 0.10 0.50 0.50 91 1006.6
20201026064217 41 75 0.0 2.0 0.13 0.48 0.50 91 1006.5
20201026063715 41 63 0.0 2.0 0.13 0.48 0.47 91 1006.3
20201026063208 41 101 0.0 2.0 0.13 0.48 0.47 91 1006.4
20201026062719 41 64 0.0 8.0 0.13 0.46 0.47 91 1006.4
20201026062230 41 61 0.0 8.0 0.13 0.46 0.46 91 1006.3
20201026061721 42 66 0.0 7.0 0.15 0.43 0.46 91 1006.2
20201026061217 42 355 1.0 7.0 0.15 0.43 0.43 91 1006.1
20201026060721 42 21 1.0 9.0 0.15 0.43 0.43 91 1005.6
20201026060218 42 65 1.0 9.0 0.14 0.42 0.43 91 1005.8
20201026055719 42 278 1.0 9.0 0.14 0.42 0.41 91 1005.9
20201026055222 42 275 1.0 5.0 0.16 0.38 0.41 91 1005.8
20201026054718 43 327 1.0 5.0 0.16 0.38 0.37 91 1005.8
20201026054224 43 16 0.0 7.0 0.13 0.38 0.37 91 1005.6
20201026053713 43 283 0.0 7.0 0.13 0.35 0.33 91 1005.6
20201026053213 42 322 0.0 7.0 0.13 0.35 0.33 91 1005.4
20201026052711 43 321 0.0 13.0 0.11 0.35 0.33 91 1005.3
20201026052215 43 323 0.0 13.0 0.11 0.31 0.33 91 1005.4
20201026051709 43 303 0.0 13.0 0.11 0.31 0.30 91 1005.3
20201026051217 43 312 1.0 15.0 0.10 0.31 0.30 90 1005.3
20201026050713 43 278 3.0 15.0 0.10 0.29 0.28 90 1005.1
20201026050225 43 294 4.0 15.0 0.10 0.29 0.28 91 1005.0
20201026045711 43 337 2.0 7.0 0.06 0.24 0.28 91 1005.1
20201026045218 44 348 1.0 7.0 0.06 0.24 0.23 91 1005.1
20201026044723 44 355 1.0 8.0 0.06 0.24 0.23 91 1005.0
20201026044212 44 309 0.0 8.0 0.06 0.23 0.23 91 1004.8
20201026043713 44 60 0.0 8.0 0.06 0.23 0.21 91 1004.6
20201026043210 44 340 0.0 8.0 0.06 0.23 0.21 91 1004.6
20201026042723 44 341 1.0 12.0 0.06 0.21 0.21 91 1004.2
20201026042223 44 315 2.0 12.0 0.06 0.21 0.20 91 1003.9
20201026041717 44 342 2.0 10.0 0.05 0.19 0.20 91 1003.8
20201026041216 44 314 3.0 10.0 0.05 0.19 0.18 91 1003.9
20201026040712 44 295 3.0 10.0 0.05 0.19 0.18 90 1003.9
20201026040215 44 302 2.0 10.0 0.05 0.18 0.18 90 1003.9
20201026035714 44 18 2.0 10.0 0.05 0.18 0.17 91 1003.9
20201026035215 45 23 1.0 9.0 0.05 0.17 0.17 91 1003.9
20201026034714 45 329 1.0 9.0 0.05 0.17 0.17 91 1004.0
20201026034209 45 9 0.0 9.0 0.06 0.17 0.17 91 1004.1
20201026033710 46 308 1.0 9.0 0.06 0.17 0.16 91 1004.1
20201026033210 46 22 1.0 0.0 0.05 0.17 0.16 91 1004.2
20201026032722 46 111 0.0 0.0 0.05 0.16 0.15 92 1004.2
20201026032221 46 262 0.0 5.0 0.06 0.16 0.15 92 1004.4
20201026031709 46 232 0.0 5.0 0.06 0.16 0.14 92 1004.5
20201026031207 46 249 0.0 2.0 0.04 0.16 0.14 92 1004.4
20201026030713 46 249 0.0 2.0 0.04 0.14 0.13 91 1004.5
20201026030211 46 304 0.0 2.0 0.04 0.14 0.13 91 1004.2
20201026025712 46 298 0.0 0.0 0.04 0.13 0.13 91 1004.2
20201026025228 46 325 0.0 6.0 0.04 0.13 0.13 92 1004.5
20201026024715 46 252 0.0 6.0 0.04 0.13 0.12 91 1004.5
20201026024212 46 132 0.0 6.0 0.03 0.13 0.12 92 1004.4
20201026023712 46 102 0.0 6.0 0.03 0.11 0.10 92 1004.6
20201026023210 46 223 0.0 0.0 0.04 0.11 0.10 92 1004.8
20201026022720 47 325 0.0 0.0 0.04 0.11 0.10 92 1004.8
20201026022210 47 294 0.0 0.0 0.04 0.11 0.10 91 1004.8
20201026021718 47 85 0.0 0.0 0.04 0.10 0.09 91 1004.7
20201026021210 47 62 0.0 4.0 0.05 0.10 0.09 91 1004.9
20201026020712 47 348 0.0 4.0 0.05 0.10 0.09 91 1005.1
20201026020218 47 22 0.0 4.0 0.05 0.10 0.09 91 1005.1
20201026015719 47 68 0.0 10.0 0.06 0.09 0.09 91 1005.2
20201026015212 47 130 1.0 4.0 0.07 0.09 0.09 91 1005.3
20201026014717 47 60 1.0 4.0 0.07 0.08 0.07 91 1005.5
20201026014211 47 349 0.0 14.0 0.07 0.08 0.07 91 1005.4
20201026013708 47 316 0.0 14.0 0.07 0.08 0.07 91 1005.4
20201026013215 47 341 1.0 14.0 0.06 0.08 0.07 91 1005.3
20201026012718 47 257 2.0 14.0 0.06 0.07 0.06 92 1005.2
20201026012212 47 73 1.0 4.0 0.06 0.07 0.06 92 1005.3
20201026011708 48 96 0.0 4.0 0.06 0.06 0.06 92 1005.3
20201026011223 48 315 0.0 0.0 0.05 0.06 0.06 92 1005.2
20201026010708 48 355 0.0 0.0 0.05 0.06 0.05 91 1005.0
20201026010222 48 346 0.0 0.0 0.05 0.06 0.05 91 1005.2
20201026005716 48 350 0.0 0.0 0.03 0.04 0.03 91 1005.1
20201026005218 48 336 0.0 0.0 0.00 0.04 0.03 91 1005.2
20201026004719 48 103 0.0 0.0 0.00 0.01 0.00 90 1005.3
20201026004220 48 103 0.0 0.0 0.00 0.01 0.00 90 1005.4
20201026003723 48 176 0.0 0.0 0.00 0.01 0.00 90 1005.5
20201026003225 48 127 0.0 0.0 0.00 0.01 0.00 90 1005.3
20201026002712 48 127 0.0 0.0 0.00 0.01 0.00 89 1005.4
20201026002220 48 128 0.0 4.0 0.00 0.01 0.00 89 1005.4
20201026001714 48 81 0.0 4.0 0.00 0.01 0.00 89 1005.3
20201026001224 48 55 0.0 4.0 0.00 0.01 0.00 89 1005.4
20201026000720 48 311 0.0 4.0 0.00 0.01 0.00 89 1005.5
20201026000217 48 311 0.0 4.0 0.00 0.01 0.00 88 1005.3
20201025235722 48 139 0.0 2.0 0.00 0.01 0.00 88 1005.4
20201025235218 48 170 0.0 0.0 0.00 0.01 0.00 88 1005.4
20201025234715 49 170 0.0 0.0 0.00 0.01 0.00 88 1005.3
20201025234223 49 136 0.0 6.0 0.00 0.01 0.00 88 1005.3
20201025233720 49 151 0.0 6.0 0.00 0.01 0.00 88 1005.4
20201025233218 49 125 0.0 6.0 0.00 0.01 0.00 88 1005.4
20201025232725 49 77 1.0 6.0 0.00 0.01 0.00 89 1005.5
20201025232207 49 40 1.0 6.0 0.00 0.01 0.00 89 1005.5
20201025231718 48 335 1.0 6.0 0.00 0.01 0.00 89 1005.4
20201025231212 48 339 1.0 0.0 0.00 0.01 0.00 89 1005.3
20201025230724 48 321 0.0 0.0 0.00 0.01 0.01 88 1005.3
20201025230214 48 50 0.0 0.0 0.00 0.01 0.01 88 1005.2
20201025225708 48 50 0.0 0.0 0.00 0.01 0.01 88 1004.9
20201025225216 48 43 0.0 0.0 0.00 0.01 0.01 88 1004.8
20201025224716 48 43 0.0 0.0 0.00 0.01 0.01 88 1004.8
20201025224222 48 43 0.0 0.0 0.00 0.01 0.01 88 1004.9
20201025223710 48 43 0.0 0.0 0.00 0.01 0.01 88 1004.9
20201025223220 48 43 0.0 0.0 0.00 0.01 0.01 87 1005.1
20201025222720 48 43 0.0 0.0 0.00 0.01 0.01 87 1005.2
20201025222209 48 43 0.0 0.0 0.00 0.01 0.01 87 1005.3
20201025221712 49 43 0.0 0.0 0.00 0.01 0.01 87 1005.4
20201025221219 49 43 0.0 0.0 0.00 0.01 0.01 87 1005.5
20201025220728 49 116 0.0 0.0 0.00 0.01 0.01 86 1005.5
20201025220213 49 142 0.0 0.0 0.00 0.01 0.01 86 1005.4
20201025215714 49 98 0.0 0.0 0.00 0.01 0.01 87 1005.5